Weather History for K08D - November, 2012

Change the Weather History Date:

Tuesday, November 13, 2012

  Actual Average (KMOT) Record (KMOT)
Temperature  
Mean Temperature 21 °F 30 °F  
Max Temperature 32 °F 38 °F 69 °F (1939)
Min Temperature 10 °F 21 °F -22 °F (1940)
Degree Days  
Heating Degree Days 44 35  
Month to date heating degree days 414  
Since 1 July heating degree days 1374  
Moisture  
Dew Point 19 °F    
Average Humidity 91    
Maximum Humidity 100    
Minimum Humidity 75    
Precipitation  
Precipitation 0.00 in 0.03 in 0.94 in (1994)
Month to date precipitation 0.38  
Year to date precipitation 16.44  
Sea Level Pressure  
Sea Level Pressure 30.09 in    
Wind  
Wind Speed 4 mph (WSW)    
Max Wind Speed 9 mph    
Max Gust Speed -    
Visibility 8 miles    
Events Fog    
T = Trace of Precipitation, MM = Missing Value Source: NWS Daily Summary

Daily Weather History Graph

Daily Weather History Graph

Search for Another Location

Airport or City:

Trip Planner

Search our weather history database for the weather conditions in past years. The results will help you decide how hot, cold, wet, or windy it might be!

Date:

Astronomy

Nov. 13, 2012 Rise Set
Actual Time 7:54 AM CST 5:12 PM CST
Civil Twilight 7:20 AM CST 5:46 PM CST
Nautical Twilight 6:42 AM CST 6:24 PM CST
Astronomical Twilight 6:06 AM CST 7:01 PM CST
Moon 7:36 AM CST (11/13) 5:05 PM CST (11/13)
Length of Visible Light 10h 25m
Length of Day
9h 17m
Waning Crescent, 0% of the Moon is Illuminated
Nov 13
Waning Crescent
Nov 13
New
Nov 20
First Quarter
Nov 28
Full
Dec 6
Last Quarter

Hourly Weather History & Observations

Time (CST) Temp. Windchill Dew Point Humidity Pressure Visibility Wind Dir Wind Speed Gust Speed Precip Events Conditions
12:15 AM 21.2 °F 13.6 °F 17.6 °F 86% 30.06 in 10.0 mi West 5.8 mph - N/A   Overcast
12:35 AM 19.4 °F 12.8 °F 17.6 °F 93% 30.06 in 10.0 mi SSW 4.6 mph - N/A   Overcast
12:55 AM 21.2 °F 14.9 °F 17.6 °F 86% 30.07 in 10.0 mi SW 4.6 mph - N/A   Overcast
1:15 AM 23.0 °F 14.7 °F 19.4 °F 86% 30.06 in 10.0 mi SW 6.9 mph - N/A   Overcast
1:35 AM 23.0 °F 18.4 °F 19.4 °F 86% 30.06 in 10.0 mi SW 3.5 mph - N/A   Overcast
1:55 AM 23.0 °F - 19.4 °F 86% 30.06 in 10.0 mi Calm Calm - N/A   Overcast
2:15 AM 23.0 °F 14.7 °F 19.4 °F 86% 30.06 in 10.0 mi West 6.9 mph - N/A   Overcast
2:35 AM 24.8 °F 15.3 °F 21.2 °F 86% 30.06 in 10.0 mi West 9.2 mph - N/A   Overcast
2:55 AM 23.0 °F 14.7 °F 19.4 °F 86% 30.06 in 10.0 mi WSW 6.9 mph - N/A   Overcast
3:35 AM 19.4 °F 10.4 °F 17.6 °F 93% 30.06 in 10.0 mi West 6.9 mph - N/A   Clear
3:55 AM 19.4 °F - 17.6 °F 93% 30.07 in 10.0 mi Calm Calm - N/A   Clear
4:15 AM 17.6 °F 10.7 °F 15.8 °F 93% 30.06 in 10.0 mi South 4.6 mph - N/A   Clear
4:35 AM 19.4 °F 12.8 °F 17.6 °F 93% 30.06 in 10.0 mi West 4.6 mph - N/A   Clear
4:55 AM 19.4 °F 14.3 °F 17.6 °F 93% 30.07 in 10.0 mi SW 3.5 mph - N/A   Clear
5:15 AM 19.4 °F - 17.6 °F 93% 30.07 in 10.0 mi Calm Calm - N/A   Clear
5:35 AM 19.4 °F - 17.6 °F 93% 30.07 in 10.0 mi Calm Calm - N/A   Clear
6:15 AM 17.6 °F 10.7 °F 17.6 °F 100% 30.07 in 10.0 mi WNW 4.6 mph - N/A   Clear
6:35 AM 17.6 °F 10.7 °F 15.8 °F 93% 30.07 in 10.0 mi WSW 4.6 mph - N/A   Clear
6:55 AM 15.8 °F 7.2 °F 15.8 °F 100% 30.07 in 10.0 mi SSW 5.8 mph - N/A   Partly Cloudy
7:15 AM 17.6 °F 9.3 °F 15.8 °F 93% 30.08 in 10.0 mi SSW 5.8 mph - N/A   Mostly Cloudy
7:35 AM 15.8 °F 7.2 °F 15.8 °F 100% 30.08 in 10.0 mi SW 5.8 mph - N/A   Overcast
7:55 AM 17.6 °F 8.2 °F 17.6 °F 100% 30.08 in 10.0 mi WSW 6.9 mph - N/A   Overcast
8:15 AM 17.6 °F - 17.6 °F 100% 30.09 in 10.0 mi Calm Calm - N/A   Overcast
8:35 AM 21.2 °F 16.4 °F 19.4 °F 93% 30.09 in 10.0 mi WSW 3.5 mph - N/A   Mostly Cloudy
8:55 AM 21.2 °F 16.4 °F 19.4 °F 93% 30.10 in 10.0 mi West 3.5 mph - N/A   Clear
9:15 AM 23.0 °F - 21.2 °F 93% 30.10 in 10.0 mi Calm Calm - N/A   Clear
9:35 AM 23.0 °F 18.4 °F 21.2 °F 93% 30.11 in 10.0 mi NE 3.5 mph - N/A   Partly Cloudy
9:55 AM 24.8 °F - 23.0 °F 93% 30.11 in 10.0 mi Calm Calm - N/A   Scattered Clouds
10:15 AM 24.8 °F 20.5 °F 23.0 °F 93% 30.11 in 10.0 mi WNW 3.5 mph - N/A   Mostly Cloudy
10:35 AM 26.6 °F - 23.0 °F 86% 30.11 in 10.0 mi Calm Calm - N/A   Partly Cloudy
10:55 AM 26.6 °F 21.2 °F 23.0 °F 86% 30.11 in 10.0 mi WSW 4.6 mph - N/A   Clear
11:15 AM 26.6 °F 21.2 °F 23.0 °F 86% 30.11 in 10.0 mi West 4.6 mph - N/A   Clear
11:35 AM 28.4 °F 24.6 °F 23.0 °F 80% 30.11 in 10.0 mi West 3.5 mph - N/A   Clear
11:55 AM 28.4 °F 23.3 °F 23.0 °F 80% 30.11 in 10.0 mi WSW 4.6 mph - N/A   Clear
12:15 PM 30.2 °F 25.4 °F 23.0 °F 75% 30.11 in 10.0 mi West 4.6 mph - N/A   Clear
12:55 PM 30.2 °F 26.7 °F 24.8 °F 80% 30.10 in 10.0 mi West 3.5 mph - N/A   Clear
1:15 PM 30.2 °F 24.3 °F 24.8 °F 80% 30.10 in 10.0 mi West 5.8 mph - N/A   Clear
1:35 PM 32.0 °F 27.5 °F 24.8 °F 75% 30.09 in 10.0 mi West 4.6 mph - N/A   Clear
1:55 PM 32.0 °F 28.7 °F 24.8 °F 75% 30.10 in 10.0 mi WSW 3.5 mph - N/A   Clear
2:15 PM 30.2 °F 26.7 °F 24.8 °F 80% 30.09 in 10.0 mi SW 3.5 mph - N/A   Clear
2:35 PM 30.2 °F - 24.8 °F 80% 30.09 in 10.0 mi Calm Calm - N/A   Clear
2:55 PM 32.0 °F - 24.8 °F 75% 30.09 in 10.0 mi Calm Calm - N/A   Clear
3:15 PM 30.2 °F 24.3 °F 24.8 °F 80% 30.10 in 10.0 mi SW 5.8 mph - N/A   Clear
3:35 PM 28.4 °F 23.3 °F 24.8 °F 86% 30.10 in 10.0 mi WSW 4.6 mph - N/A   Clear
3:55 PM 28.4 °F 24.6 °F 24.8 °F 86% 30.10 in 10.0 mi SSW 3.5 mph - N/A   Clear
4:15 PM 28.4 °F 22.2 °F 24.8 °F 86% 30.11 in 10.0 mi SSW 5.8 mph - N/A   Clear
4:35 PM 26.6 °F 22.6 °F 24.8 °F 93% 30.11 in 10.0 mi WSW 3.5 mph - N/A   Partly Cloudy
4:55 PM 26.6 °F 21.2 °F 24.8 °F 93% 30.11 in 10.0 mi SW 4.6 mph - N/A   Mostly Cloudy
5:15 PM 24.8 °F 20.5 °F 23.0 °F 93% 30.11 in 10.0 mi SW 3.5 mph - N/A   Overcast
5:35 PM 24.8 °F - 23.0 °F 93% 30.10 in 10.0 mi Calm Calm - N/A   Mostly Cloudy
5:55 PM 24.8 °F 20.5 °F 23.0 °F 93% 30.10 in 10.0 mi South 3.5 mph - N/A   Partly Cloudy
6:15 PM 23.0 °F - 23.0 °F 100% 30.11 in 10.0 mi Calm Calm - N/A   Clear
6:35 PM 17.6 °F - 17.6 °F 100% 30.11 in 10.0 mi Calm Calm - N/A   Clear
6:55 PM 17.6 °F 12.3 °F 17.6 °F 100% 30.10 in 9.0 mi SSW 3.5 mph - N/A   Clear
7:15 PM 15.8 °F - 15.8 °F 100% 30.10 in 10.0 mi Calm Calm - N/A   Clear
7:35 PM 15.8 °F 10.2 °F 15.8 °F 100% 30.09 in 4.0 mi SSW 3.5 mph - N/A   Clear
7:55 PM 14.0 °F - 12.2 °F 93% 30.09 in 0.2 mi Calm Calm - N/A Fog Light Freezing Fog
8:15 PM 14.0 °F 8.2 °F 14.0 °F 100% 30.10 in 0.2 mi SW 3.5 mph - N/A Fog Light Freezing Fog
8:35 PM 10.4 °F - 10.4 °F 100% 30.09 in 0.2 mi Calm Calm - N/A Fog Light Freezing Fog
8:55 PM 14.0 °F - 14.0 °F 100% 30.10 in 0.2 mi Calm Calm - N/A Fog Light Freezing Fog
9:15 PM 14.0 °F - 14.0 °F 100% 30.10 in 0.2 mi Calm Calm - N/A Fog Light Freezing Fog
9:35 PM 14.0 °F - 14.0 °F 100% 30.10 in 0.2 mi Calm Calm - N/A Fog Light Freezing Fog
9:55 PM 12.2 °F - 10.4 °F 92% 30.09 in 0.2 mi Calm Calm - N/A Fog Light Freezing Fog
10:15 PM 10.4 °F - 8.6 °F 92% 30.09 in 0.2 mi Calm Calm - N/A Fog Light Freezing Fog
10:35 PM 10.4 °F - 10.4 °F 100% 30.09 in 0.2 mi Calm Calm - N/A Fog Light Freezing Fog
10:55 PM 12.2 °F - 12.2 °F 100% 30.09 in 0.2 mi Calm Calm - N/A Fog Light Freezing Fog
11:15 PM 10.4 °F - 10.4 °F 100% 30.09 in 0.2 mi Calm Calm - N/A Fog Light Freezing Fog
11:35 PM 12.2 °F - 10.4 °F 92% 30.09 in 0.2 mi Calm Calm - N/A Fog Light Freezing Fog
11:55 PM 10.4 °F 4.0 °F 10.4 °F 100% 30.09 in 0.2 mi WSW 3.5 mph - N/A Fog Light Freezing Fog